TimeWET,TemperatureF,Dew PointF,Humidity,Sea Level PressureIn,VisibilityMPH,Wind Direction,Wind SpeedMPH,Gust SpeedMPH,PrecipitationIn,Events,Conditions,WindDirDegrees,DateUTC
12:00 AM,59,52,72,30.10,6,Calm,Calm,,,,Clear,,2012-10-13 00:00:00
12:00 AM,59.0,51.8,77,30.12,-9999.0,Calm,Calm,-,N/A,,Clear,0,2012-10-13 00:00:00
1:00 AM,59.0,51.8,77,30.12,-9999.0,Calm,Calm,-,N/A,,Clear,0,2012-10-13 01:00:00
2:00 AM,59.0,51.8,77,30.09,-9999.0,WSW,2.3,-,N/A,,Clear,250,2012-10-13 02:00:00
3:00 AM,58,54,83,30.07,6,WSW,2.3,,,,Clear,250,2012-10-13 03:00:00
3:00 AM,59.0,53.6,82,30.12,-9999.0,WSW,2.3,-,N/A,,Clear,250,2012-10-13 03:00:00
4:00 AM,59.0,51.8,77,30.09,-9999.0,Calm,Calm,-,N/A,,Clear,0,2012-10-13 04:00:00
5:00 AM,59.0,55.4,88,30.09,-9999.0,Calm,Calm,-,N/A,,Clear,0,2012-10-13 05:00:00
6:00 AM,56,53,85,30.07,6,SW,2.3,,,,Scattered Clouds,220,2012-10-13 06:00:00
6:00 AM,57.2,53.6,88,30.09,-9999.0,SW,2.3,-,N/A,,Clear,220,2012-10-13 06:00:00
7:00 AM,55.4,51.8,88,30.09,6.2,SW,2.3,-,N/A,,Mostly Cloudy,220,2012-10-13 07:00:00
8:00 AM,62.6,55.4,77,30.12,6.2,West,2.3,-,N/A,,Scattered Clouds,260,2012-10-13 08:00:00
9:00 AM,64.4,50.0,59,30.12,-9999.0,North,-9999.0,-,N/A,,Scattered Clouds,0,2012-10-13 09:00:00
11:00 AM,68.0,51.8,56,30.12,6.2,NW,4.6,-,N/A,,Scattered Clouds,320,2012-10-13 11:00:00
12:00 PM,71,49,34,30.02,6,NW,2.3,,,,Scattered Clouds,320,2012-10-13 12:00:00
12:00 PM,71.6,48.2,43,30.09,6.2,NW,2.3,-,N/A,,Scattered Clouds,320,2012-10-13 12:00:00
2:00 PM,73.4,44.6,36,30.04,6.2,West,4.6,-,N/A,,Partly Cloudy,270,2012-10-13 14:00:00
3:00 PM,74,45,24,29.96,6,North,3.5,,,,Scattered Clouds,10,2012-10-13 15:00:00
4:00 PM,73.4,48.2,41,30.04,6.2,NW,9.2,-,N/A,,Partly Cloudy,320,2012-10-13 16:00:00
5:00 PM,71.6,48.2,43,30.04,6.2,NNW,9.2,-,N/A,,Partly Cloudy,340,2012-10-13 17:00:00
6:00 PM,69,49,37,29.97,6,NNW,5.8,,,,Scattered Clouds,330,2012-10-13 18:00:00
6:00 PM,69.8,48.2,46,30.04,6.2,NNW,5.8,-,N/A,,Partly Cloudy,330,2012-10-13 18:00:00
7:00 PM,66.2,53.6,64,30.04,-9999.0,NNW,9.2,-,N/A,,Clear,330,2012-10-13 19:00:00
8:00 PM,64.4,53.6,68,30.06,-9999.0,NW,6.9,-,N/A,,Clear,320,2012-10-13 20:00:00
9:00 PM,61,52,65,30.03,6,West,5.8,,,,Clear,280,2012-10-13 21:00:00
9:00 PM,60.8,51.8,72,30.06,-9999.0,West,5.8,-,N/A,,Clear,280,2012-10-13 21:00:00
10:00 PM,59.0,51.8,77,30.06,-9999.0,WSW,3.5,-,N/A,,Clear,250,2012-10-13 22:00:00